Location: Bonny Doon Airfield
(37.0704°N, 122.1252°W)
Time: 03:05:13
(UTC-08:00)

N. Korean satellite - Pass Details

Date: 13 October 2017
Orbit: 461 x 513 km, 97.2° (Epoch: 16 December)

Event Time Altitude Azimuth Distance (km) Brightness Sun altitude
Rises 19:56:12 0° 195° (SSW) 2,553 10.4 -17.2°
Reaches altitude 10° 19:58:36 10° 211° (SSW) 1,666 9.6 -17.7°
Maximum altitude 20:01:27 22° 264° (W) 1,091 9.2 -18.2°
Drops below altitude 10° 20:04:17 10° 317° (NW) 1,653 9.9 -18.8°
Sets 20:06:40 0° 333° (NNW) 2,526 10.6 -19.3°
